Location: Bluff Heights
(33.7692°N, 118.1592°W)
Time: 20:47:53
(UTC+00:00)

First-Move - Pass Details

Date: 01 October 2021
Orbit: 574 x 666 km, 97.6° (Epoch: 19 October)

Event Time Altitude Azimuth Distance (km) Brightness Sun altitude
Rises 12:39:42 0° 7° (N) 2,826 ? -14.9°
Reaches altitude 10° 12:41:54 10° 3° (N) 1,911 ? -14.4°
Maximum altitude 12:45:58 58° 284° (WNW) 676 ? -13.6°
Drops below altitude 10° 12:49:57 10° 205° (SSW) 1,875 ? -12.7°
Sets 12:52:06 0° 202° (SSW) 2,767 ? -12.3°
